Harare Kutsaga, Zimbabwe

11:34 PM CAT on December 16, 2017 (GMT +0200)
Harare Kutsaga

Weather History for FVHA - March, 2014

Change the Weather History Date:

Wednesday, March 5, 2014

  Actual Average Record
Temperature  
Mean Temperature 74 °F -  
Max Temperature 83 °F 79 °F 86 °F (2012)
Min Temperature 64 °F 57 °F 51 °F (2015)
Cooling Degree Days 8    
Growing Degree Days 24 (Base 50)    
Moisture  
Dew Point 63 °F    
Average Humidity 73    
Maximum Humidity 95    
Minimum Humidity 38    
Precipitation  
Precipitation 0.00 in 0.11 in - ()
Sea Level Pressure  
Sea Level Pressure 30.16 in    
Wind  
Wind Speed 9 mph ()    
Max Wind Speed 14 mph    
Max Gust Speed -    
Visibility 10.0 miles    
Events      
Averages and records for this station are not official NWS values.
T = Trace of Precipitation, MM = Missing Value Source: Averaged Metar Reports

Daily Weather History Graph

Daily Weather History Graph

Search for Another Location

Airport or City:

Trip Planner

Search our weather history database for the weather conditions in past years. The results will help you decide how hot, cold, wet, or windy it might be!

Date:

Astronomy

Mar. 05, 2014 Rise Set
Actual Time 5:55 AM CAT 6:18 PM CAT
Civil Twilight 5:33 AM CAT 6:40 PM CAT
Nautical Twilight 5:08 AM CAT 7:05 PM CAT
Astronomical Twilight 4:42 AM CAT 7:31 PM CAT
Moon 9:40 AM CAT (3/5) 9:26 PM CAT (3/5)
Length of Visible Light 13h 06m
Length of Day
12h 22m
Waxing Crescent, 20% of the Moon is Illuminated
Mar 5
Waxing Crescent
Mar 8
First Quarter
Mar 16
Full
Mar 24
Last Quarter
Mar 30
New

Hourly Weather History & Observations

Time (CAT) Temp. Heat Index Dew Point Humidity Pressure Visibility Wind Dir Wind Speed Gust Speed Precip Events Conditions
2:00 AM 65 °F - 64 °F 95%  in 19 mi ENE 10.4 mph - -   Scattered Clouds
2:00 AM 66.2 °F - 64.4 °F 94% 30.15 in 6.2 mi ENE 10.4 mph - N/A   Partly Cloudy
5:00 AM 65 °F - 63 °F 91%  in 19 mi ENE 10.4 mph - -   Partly Cloudy
5:00 AM 64.4 °F - 62.6 °F 94% 30.15 in 6.2 mi ENE 10.4 mph - N/A   Scattered Clouds
7:00 AM 66.2 °F - 64.4 °F 94% 30.18 in 6.2 mi ENE 11.5 mph - N/A   Mostly Cloudy
8:00 AM 70 °F - 65 °F 78%  in 19 mi ENE 13.8 mph - -   Mostly Cloudy
8:00 AM 69.8 °F - 64.4 °F 83% 30.21 in 6.2 mi ENE 13.8 mph - N/A   Mostly Cloudy
9:00 AM 71.6 °F - 62.6 °F 73% 30.21 in 6.2 mi ENE 13.8 mph - N/A   Mostly Cloudy
10:00 AM 75.2 °F - 62.6 °F 65% 30.21 in 6.2 mi ENE 12.7 mph - N/A   Mostly Cloudy
11:00 AM 76 °F - 62 °F 53%  in 19 mi NNE 12.7 mph - -   Partly Cloudy
11:00 AM 75.2 °F - 62.6 °F 65% 30.21 in 6.2 mi NNE 12.7 mph - N/A   Mostly Cloudy
12:00 PM 80.6 °F 81.5 °F 60.8 °F 51% 30.18 in 6.2 mi ENE 9.2 mph - N/A   Mostly Cloudy
1:00 PM 78.8 °F - 60.8 °F 54% 30.15 in 6.2 mi ENE 8.1 mph - N/A   Mostly Cloudy
2:00 PM 81 °F - 60 °F 38%  in 19 mi NE 9.2 mph - -   Mostly Cloudy
2:00 PM 80.6 °F 81.5 °F 60.8 °F 51% 30.12 in 6.2 mi Variable 5.8 mph - N/A   Mostly Cloudy
3:00 PM 82.4 °F 83.4 °F 62.6 °F 51% 30.15 in 6.2 mi Variable 6.9 mph - N/A   Mostly Cloudy
4:00 PM 80.6 °F 81.5 °F 60.8 °F 51% 30.09 in 6.2 mi East 9.2 mph - N/A   Mostly Cloudy
5:00 PM 76 °F - 62 °F 54%  in 19 mi ENE 8.1 mph - -   Partly Cloudy
5:00 PM 77.0 °F - 62.6 °F 61% 30.09 in 6.2 mi ENE 8.1 mph - N/A   Mostly Cloudy
6:00 PM 73.4 °F - 62.6 °F 69% 30.09 in 6.2 mi ENE 9.2 mph - N/A   Mostly Cloudy
7:00 PM 69.8 °F - 64.4 °F 83% 30.12 in 6.2 mi East 6.9 mph - N/A   Mostly Cloudy
8:00 PM 69 °F - 64 °F 79%  in 19 mi ENE 6.9 mph - -   Scattered Clouds
8:00 PM 69.8 °F - 64.4 °F 83% 30.15 in 6.2 mi ENE 6.9 mph - N/A   Mostly Cloudy
9:00 PM 68.0 °F - 64.4 °F 88% 30.18 in 6.2 mi East 4.6 mph - N/A   Mostly Cloudy
10:00 PM 68.0 °F - 64.4 °F 88% 30.18 in 6.2 mi East 5.8 mph - N/A   Mostly Cloudy
11:00 PM 68 °F - 65 °F 89%  in 19 mi NE 9.2 mph - -   Scattered Clouds
11:00 PM 68.0 °F - 64.4 °F 88% 30.21 in 6.2 mi NE 9.2 mph - N/A   Mostly Cloudy